CEST,Max TemperatureF,Mean TemperatureF,Min TemperatureF,Max Dew PointF,MeanDew PointF,Min DewpointF,Max Humidity, Mean Humidity, Min Humidity, Max Sea Level PressureIn, Mean Sea Level PressureIn, Min Sea Level PressureIn, Max VisibilityMiles, Mean VisibilityMiles, Min VisibilityMiles, Max Wind SpeedMPH, Mean Wind SpeedMPH, Max Gust SpeedMPH,PrecipitationIn, CloudCover, Events, WindDirDegrees
2014-3-1,64,61,58,55,54,51,82,77,59,30.09,30.01,29.87,19,7,6,28,18,43,0.00,4,Rain,260
2014-3-2,66,63,60,55,53,52,77,69,56,29.96,29.87,29.77,16,7,6,38,30,56,0.00,1,,276
2014-3-3,61,60,58,54,50,44,82,66,49,30.01,29.97,29.89,19,9,6,26,22,44,0.00,2,,270
2014-3-4,60,58,55,46,44,41,63,57,44,30.10,30.06,30.01,16,8,6,29,24,47,0.00,1,,272
2014-3-5,63,59,55,54,51,44,82,71,52,30.12,30.05,30.01,19,8,6,29,18,46,0.00,2,,267
2014-3-6,64,57,50,52,49,45,87,68,38,30.15,30.10,30.04,19,19,19,10,3,16,0.00,,,79
2014-3-7,64,59,54,55,51,47,94,71,46,30.25,30.22,30.15,16,7,6,16,11,22,0.00,1,,77
2014-3-8,61,58,54,54,51,48,88,72,54,30.21,30.16,30.12,16,8,6,10,7,,0.00,1,,74
2014-3-9,61,58,56,52,50,49,82,71,55,30.22,30.18,30.15,16,8,6,17,12,26,0.00,5,,63
2014-3-10,60,58,56,52,51,50,82,76,66,30.15,30.10,30.04,12,6,6,15,12,,0.00,5,Rain,82
2014-3-11,62,58,55,52,50,48,82,72,54,30.07,30.04,30.01,19,8,6,15,13,,0.00,5,,68
2014-3-12,61,58,56,50,49,47,77,69,59,30.19,30.13,30.09,19,7,6,16,14,26,0.00,2,,46
2014-3-13,59,56,53,52,50,49,94,77,68,30.27,30.21,30.15,12,6,4,17,12,29,0.00,4,Rain,36
2014-3-14,57,55,51,54,50,48,89,80,71,30.33,30.28,30.24,19,7,3,13,8,24,0.16,5,Rain,37
2014-3-15,62,53,44,52,46,39,88,66,46,30.36,30.32,30.30,19,10,6,8,3,,0.00,1,,45
2014-3-16,67,55,43,47,42,36,81,51,30,30.30,30.24,30.18,19,12,6,6,2,,0.00,1,,58
2014-3-17,68,59,50,57,51,45,94,69,46,30.21,30.17,30.12,9,6,6,7,2,,0.00,,,44
2014-3-18,64,57,50,57,54,48,94,84,70,30.16,30.12,30.09,12,3,0,6,3,,0.00,1,Fog,70
2014-3-19,62,56,51,57,53,41,88,79,58,30.19,30.15,30.09,6,4,2,7,3,,0.00,3,,63
2014-3-20,63,58,53,54,51,48,94,74,58,30.17,30.13,30.09,12,6,4,9,3,,0.00,2,,33
2014-3-21,69,60,50,54,52,46,94,67,46,30.22,30.16,30.12,12,6,6,9,5,,0.00,1,,282
2014-3-22,68,62,57,54,52,48,82,64,48,30.12,30.06,30.01,19,8,6,18,11,33,0.00,2,,259
2014-3-23,65,62,58,51,48,43,68,57,43,30.11,30.07,30.04,19,12,6,17,13,29,0.00,1,,270
2014-3-24,68,60,51,49,44,39,67,48,32,30.21,30.16,30.12,12,12,12,21,7,36,0.00,,,273
2014-3-25,68,63,58,52,45,36,77,51,30,30.27,30.19,30.09,19,7,6,26,21,44,0.00,1,,263
2014-3-26,61,59,57,48,42,34,72,51,27,30.04,30.01,29.95,19,7,6,31,25,52,0.00,3,,277
2014-3-27,64,59,54,47,39,31,67,44,22,30.04,29.95,29.86,19,17,12,14,8,,0.00,,,286
2014-3-28,63,58,53,55,51,48,82,72,53,29.73,29.65,29.56,16,7,6,16,4,,0.00,1,,50
2014-3-29,61,56,51,50,48,45,94,73,54,29.83,29.67,29.53,19,6,2,16,12,25,0.31,3,Rain,260
2014-3-30,65,58,51,50,46,42,88,58,43,30.01,29.97,29.89,6,6,6,13,6,,0.00,1,Rain,273
2014-3-31,69,60,51,54,48,43,82,62,39,30.03,29.97,29.89,19,19,19,8,4,,0.00,,,79